Weather History for KOTH - December, 2014

Change the Weather History Date:

Sunday, December 7, 2014

  Actual Average Record
Temperature  
Mean Temperature 54 °F 46 °F  
Max Temperature 61 °F 51 °F 66 °F (1925)
Min Temperature 46 °F 40 °F 20 °F (1972)
Degree Days  
Heating Degree Days 11 19  
Month to date heating degree days 83 133  
Since 1 July heating degree days 959 1585  
Cooling Degree Days 0 0  
Month to date cooling degree days 0 0  
Year to date cooling degree days 28 2  
Growing Degree Days 3 (Base 50)    
Moisture  
Dew Point 48 °F    
Average Humidity 84    
Maximum Humidity 93    
Minimum Humidity 62    
Precipitation  
Precipitation 0.01 in 0.37 in 1.41 in (1942)
Month to date precipitation 4.51 2.65  
Year to date precipitation 39.35 56.43  
Sea Level Pressure  
Sea Level Pressure 30.04 in    
Wind  
Wind Speed 7 mph (SSE)    
Max Wind Speed 13 mph    
Max Gust Speed 22 mph    
Visibility 10 miles    
Events      
T = Trace of Precipitation, MM = Missing Value Source: NWS Daily Summary

Daily Weather History Graph

Daily Weather History Graph

Search for Another Location

Airport or City:

Trip Planner

Search our weather history database for the weather conditions in past years. The results will help you decide how hot, cold, wet, or windy it might be!

Date:

Astronomy

Dec. 07, 2014 Rise Set
Actual Time 7:36 AM PST 4:40 PM PST
Civil Twilight 7:03 AM PST 5:13 PM PST
Nautical Twilight 6:27 AM PST 5:49 PM PST
Astronomical Twilight 5:53 AM PST 6:23 PM PST
Moon 6:16 PM PST (12/7) 8:22 AM PST (12/7)
Length of Visible Light 10h 09m
Length of Day
9h 04m
Full, 98% of the Moon is Illuminated
Dec 7
Full
Dec 14
Last Quarter
Dec 21
New
Dec 28
First Quarter
Jan 4
Full

Hourly Weather History & Observations

Time (PST) Temp. Windchill Dew Point Humidity Pressure Visibility Wind Dir Wind Speed Gust Speed Precip Events Conditions
12:15 AM 48.2 °F - 46.4 °F 93% 30.15 in 10.0 mi SSE 5.8 mph - N/A   Clear
12:35 AM 48.2 °F - 46.4 °F 93% 30.14 in 10.0 mi SSE 5.8 mph - N/A   Clear
12:55 AM 48.2 °F - 46.4 °F 93% 30.14 in 10.0 mi SSE 5.8 mph - N/A   Clear
1:15 AM 48.2 °F - 46.4 °F 93% 30.14 in 10.0 mi SSE 6.9 mph - N/A   Clear
1:35 AM 48.2 °F - 46.4 °F 93% 30.13 in 10.0 mi SE 5.8 mph - N/A   Clear
1:55 AM 48.2 °F - 46.4 °F 93% 30.13 in 10.0 mi SSE 4.6 mph - N/A   Clear
2:15 AM 46.4 °F 42.9 °F 44.6 °F 93% 30.13 in 10.0 mi SE 6.9 mph - N/A   Clear
2:35 AM 46.4 °F 42.9 °F 46.4 °F 100% 30.13 in 10.0 mi SE 6.9 mph - N/A   Clear
2:55 AM 46.4 °F 42.4 °F 44.6 °F 93% 30.13 in 10.0 mi SE 8.1 mph - N/A   Clear
3:15 AM 48.2 °F - 44.6 °F 87% 30.13 in 10.0 mi SE 8.1 mph - N/A   Clear
3:35 AM 48.2 °F - 46.4 °F 93% 30.12 in 10.0 mi SE 9.2 mph - N/A   Clear
3:55 AM 48.2 °F - 44.6 °F 87% 30.11 in 10.0 mi SE 8.1 mph - N/A   Clear
4:15 AM 46.4 °F 43.5 °F 44.6 °F 93% 30.11 in 10.0 mi SSE 5.8 mph - N/A   Clear
4:35 AM 46.4 °F 42.4 °F 44.6 °F 93% 30.10 in 10.0 mi SE 8.1 mph - N/A   Clear
4:55 AM 48.2 °F - 44.6 °F 87% 30.10 in 10.0 mi SE 6.9 mph - N/A   Clear
5:15 AM 48.2 °F - 46.4 °F 93% 30.10 in 10.0 mi SE 8.1 mph - N/A   Clear
5:35 AM 48.2 °F - 44.6 °F 87% 30.09 in 10.0 mi SSE 8.1 mph - N/A   Clear
5:55 AM 46.4 °F 42.4 °F 44.6 °F 93% 30.09 in 10.0 mi SSE 8.1 mph - N/A   Clear
6:15 AM 48.2 °F - 44.6 °F 87% 30.09 in 10.0 mi SSE 9.2 mph - N/A   Clear
6:35 AM 48.2 °F - 44.6 °F 87% 30.09 in 10.0 mi SSE 6.9 mph - N/A   Clear
6:55 AM 46.4 °F 43.5 °F 44.6 °F 93% 30.08 in 10.0 mi SE 5.8 mph - N/A   Clear
7:15 AM 48.2 °F - 44.6 °F 87% 30.07 in 10.0 mi SSE 6.9 mph - N/A   Clear
7:35 AM 48.2 °F - 44.6 °F 87% 30.07 in 10.0 mi SSE 9.2 mph - N/A   Clear
7:55 AM 48.2 °F - 44.6 °F 87% 30.06 in 10.0 mi SSE 6.9 mph - N/A   Clear
8:15 AM 48.2 °F - 44.6 °F 87% 30.06 in 10.0 mi SSE 5.8 mph - N/A   Clear
8:35 AM 48.2 °F - 44.6 °F 87% 30.06 in 10.0 mi SSE 6.9 mph - N/A   Clear
8:55 AM 50.0 °F - 44.6 °F 82% 30.06 in 10.0 mi SSE 4.6 mph - N/A   Clear
9:15 AM 50.0 °F - 46.4 °F 87% 30.06 in 10.0 mi South 4.6 mph - N/A   Clear
9:35 AM 51.8 °F - 46.4 °F 82% 30.07 in 10.0 mi SSE 4.6 mph - N/A   Clear
9:55 AM 51.8 °F - 46.4 °F 82% 30.06 in 10.0 mi SSE 5.8 mph - N/A   Clear
10:15 AM 51.8 °F - 46.4 °F 82% 30.07 in 10.0 mi South 4.6 mph - N/A   Clear
10:35 AM 53.6 °F - 46.4 °F 77% 30.06 in 10.0 mi SSE 5.8 mph - N/A   Clear
10:55 AM 53.6 °F - 46.4 °F 77% 30.05 in 10.0 mi SSE 8.1 mph - N/A   Clear
11:15 AM 53.6 °F - 46.4 °F 77% 30.04 in 10.0 mi SSE 8.1 mph - N/A   Clear
11:35 AM 55.4 °F - 46.4 °F 72% 30.03 in 10.0 mi SSE 6.9 mph - N/A   Clear
11:55 AM 55.4 °F - 48.2 °F 77% 30.02 in 10.0 mi SE 8.1 mph - N/A   Clear
12:15 PM 55.4 °F - 46.4 °F 72% 30.01 in 10.0 mi SE 9.2 mph - N/A   Clear
12:35 PM 55.4 °F - 48.2 °F 77% 30.00 in 10.0 mi SE 8.1 mph - N/A   Clear
12:55 PM 57.2 °F - 46.4 °F 67% 29.99 in 10.0 mi SE 8.1 mph - N/A   Clear
1:15 PM 57.2 °F - 48.2 °F 72% 29.98 in 10.0 mi SE 8.1 mph - N/A   Clear
1:35 PM 57.2 °F - 48.2 °F 72% 29.98 in 10.0 mi SE 5.8 mph - N/A   Clear
1:55 PM 57.2 °F - 48.2 °F 72% 29.97 in 10.0 mi SSE 5.8 mph - N/A   Partly Cloudy
2:15 PM 59.0 °F - 48.2 °F 67% 29.96 in 10.0 mi SSE 6.9 mph - N/A   Clear
2:35 PM 57.2 °F - 48.2 °F 72% 29.96 in 10.0 mi SSE 5.8 mph - N/A   Scattered Clouds
2:55 PM 57.2 °F - 48.2 °F 72% 29.96 in 10.0 mi SE 5.8 mph - N/A   Overcast
3:15 PM 57.2 °F - 48.2 °F 72% 29.96 in 10.0 mi SSE 8.1 mph - N/A   Overcast
3:35 PM 57.2 °F - 48.2 °F 72% 29.95 in 10.0 mi SE 5.8 mph - N/A   Overcast
3:55 PM 57.2 °F - 48.2 °F 72% 29.94 in 10.0 mi ESE 8.1 mph - N/A   Partly Cloudy
4:15 PM 57.2 °F - 48.2 °F 72% 29.94 in 10.0 mi SE 6.9 mph - N/A   Scattered Clouds
4:35 PM 57.2 °F - 48.2 °F 72% 29.94 in 10.0 mi SSE 8.1 mph - N/A   Overcast
4:55 PM 59.0 °F - 46.4 °F 63% 29.95 in 10.0 mi SSE 8.1 mph - N/A   Overcast
5:15 PM 60.8 °F - 46.4 °F 59% 29.96 in 10.0 mi South 4.6 mph - N/A   Overcast
5:35 PM 59.0 °F - 48.2 °F 67% 29.97 in 10.0 mi Calm Calm - N/A   Overcast
5:55 PM 57.2 °F - 48.2 °F 72% 29.99 in 8.0 mi SW 8.1 mph 21.9 mph N/A   Overcast
6:15 PM 57.2 °F - 53.6 °F 88% 30.01 in 9.0 mi South 12.7 mph 21.9 mph N/A   Overcast
6:35 PM 57.2 °F - 55.4 °F 94% 30.01 in 10.0 mi SE 10.4 mph 16.1 mph N/A   Overcast
6:55 PM 55.4 °F - 53.6 °F 94% 30.01 in 10.0 mi SSE 12.7 mph - N/A   Overcast
7:15 PM 55.4 °F - 53.6 °F 94% 30.00 in 10.0 mi SE 11.5 mph 18.4 mph N/A   Overcast
7:35 PM 55.4 °F - 53.6 °F 94% 30.01 in 10.0 mi SSE 9.2 mph - N/A   Mostly Cloudy
7:55 PM 55.4 °F - 53.6 °F 94% 30.00 in 10.0 mi SSE 9.2 mph - N/A   Scattered Clouds
8:15 PM 55.4 °F - 51.8 °F 88% 30.00 in 10.0 mi SSE 9.2 mph - N/A   Mostly Cloudy
8:35 PM 55.4 °F - 51.8 °F 88% 30.00 in 10.0 mi SSE 9.2 mph - N/A   Scattered Clouds
8:55 PM 55.4 °F - 51.8 °F 88% 30.01 in 10.0 mi SSE 9.2 mph - N/A   Mostly Cloudy
9:15 PM 55.4 °F - 51.8 °F 88% 30.01 in 10.0 mi SSE 9.2 mph - N/A   Scattered Clouds
9:35 PM 55.4 °F - 50.0 °F 82% 30.01 in 10.0 mi SSE 8.1 mph - N/A   Clear
9:55 PM 55.4 °F - 50.0 °F 82% 30.01 in 10.0 mi SSE 8.1 mph - N/A   Clear
10:15 PM 55.4 °F - 48.2 °F 77% 30.02 in 10.0 mi SSE 8.1 mph - N/A   Partly Cloudy
10:35 PM 55.4 °F - 50.0 °F 82% 30.03 in 10.0 mi SSE 11.5 mph - 0.01 in   Mostly Cloudy
10:55 PM 55.4 °F - 51.8 °F 88% 30.03 in 10.0 mi South 5.8 mph - 0.01 in   Mostly Cloudy
11:15 PM 53.6 °F - 51.8 °F 94% 30.04 in 10.0 mi SSE 5.8 mph - N/A   Overcast
11:35 PM 53.6 °F - 51.8 °F 94% 30.04 in 10.0 mi SE 4.6 mph - N/A   Overcast
11:55 PM 53.6 °F - 51.8 °F 94% 30.04 in 10.0 mi SE 3.5 mph - N/A   Mostly Cloudy